Regional Weather Roundup
Issued by NWS

Home | Current Version | Previous Version | Graphics & Text | Print | Product List | Glossary On
Versions: 1 2 3 4 5 6 7 8 9 10 11 12 13 14 15 16 17 18 19 20 21 22 23 24 25 26 27 28 29 30 31 32 33 34 35 36 37 38 39 40 41 42 43 44 45 46 47 48 49 50
000
ASUS45 KSLC 271910
RWRUT

UTAH REGIONAL WEATHER ROUNDUP
NATIONAL WEATHER SERVICE SALT LAKE CITY UT
1200 PM MST FRI FEB 27 2015

UTZ001>011-023>025-272000-

NORTHERN UTAH

CITY           SKY/WX    TMP DP  RH WIND       PRES   REMARKS
BRIGHAM CITY   CLOUDY    38  26  61 S13       29.82F WCI  30
HILL AFB       PTSUNNY   38  24  58 S8        29.80F WCI  32
LOGAN          CLOUDY    35  25  66 VRB3      29.80F
OGDEN          CLOUDY    39  26  59 S9        29.80F WCI  33
PROVO AIRPORT  CLOUDY    39  28  65 VRB5      29.83F
SALT LAKE CITY PTSUNNY   41  31  67 VRB7      29.81F
VERNAL         PTSUNNY   34  18  52 SW9       29.85F WCI  27
WENDOVER       PTSUNNY   43  28  56 E6        29.79F
HEBER CITY     CLOUDY    34  23  64 SW5       29.79F WCI  30
WEST JORDAN    CLOUDY    37  30  75 S14       29.81F WCI  29

$$

UTZ012>022-026-027-272000-

SOUTHERN/CENTRAL UTAH

CITY           SKY/WX    TMP DP  RH WIND       PRES   REMARKS
BLANDING       CLOUDY    31  25  81 CALM      29.93F
BRYCE CANYON   CLOUDY    30  18  60 S12       29.78F WCI  20
CEDAR CITY     MOSUNNY   36  21  54 CALM      29.77F
DELTA          MOSUNNY   42  23  48 SE3       29.80F
HANKSVILLE     SUNNY     41  28  60 CALM      29.85F
MILFORD        SUNNY     44  22  41 CALM      29.77F
MOAB/CYNLANDS  CLOUDY    39  27  62 CALM      29.81F
PRICE          CLOUDY    38  18  44 S6        29.79F WCI  33
ST GEORGE      MOCLDY    54  27  35 N7        29.79F
KANAB            N/A     43  27  52 N7        29.82F

$$

REGIONAL REPORTS     COLORADO/ARIZONA

CITY           SKY/WX    TMP DP  RH WIND       PRES   REMARKS
CRAIG, CO      SUNNY     26  17  68 VRB3      29.84F
GRAND JUNCTION CLOUDY    35  27  72 SW5       29.83F WCI  31
RIFLE          PTSUNNY   34  21  59 CALM      29.81F
MONTROSE       PTSUNNY   33  24  69 NE6       29.83F WCI  28
CORTEZ         CLOUDY    32  28  85 SW7       29.86F WCI  26
PAGE, AZ       LGT RAIN  40  33  76 E7        29.83F
GRAND CANYON   CLOUDY    35  29  78 NE3       29.82F
KINGMAN        MOSUNNY   54  27  35 CALM      29.77F
FLAGSTAFF      CLOUDY    38  22  52 S10       29.82F WCI  31

$$

REGIONAL REPORTS    NEVADA/IDAHO/WYOMING

CITY           SKY/WX    TMP DP  RH WIND       PRES   REMARKS
LAS VEGAS, NV  MOSUNNY   59  21  23 CALM      29.73F
ELY            CLOUDY    41  14  33 S6        29.74F
ELKO           PTSUNNY   44  23  43 VRB5      29.73F
POCATELLO, ID  CLOUDY    34  26  72 N5        29.80F WCI  30
BURLEY         CLOUDY    39  31  72 E3        29.76F
EVANSTON, WY   CLOUDY    23  17  78 VRB5      29.77F WCI  17
ROCK SPRINGS   SUNNY     21  12  68 S7        29.80F WCI  12

$$



USA.gov is the U.S. government's official web portal to all federal, state and local government web resources and services.